• In Netherlands
  • List of Countries
  • For 7 days
  • Water Temperature
  • Satellite Maps
  • Weather Map
  • Weather Widgets
  • user-avatar
    Login

    Hourly Weather Sherpur

    Today, 19 November, Sunday

    Time Temperature Precipitation Wind Pressure Humidity
    00:00 +2°C° 0 mm 2 mps 610 mmHg 41%
    01:00 +2°C° 0 mm 2 mps 610 mmHg 41%
    02:00 +2°C° 0 mm 2 mps 609 mmHg 42%
    03:00 +2°C° 0 mm 2 mps 609 mmHg 42%
    04:00 +1°C° 0 mm 2 mps 609 mmHg 42%
    05:00 +1°C° 0 mm 2 mps 609 mmHg 42%
    06:00 +1°C° 0 mm 2 mps 610 mmHg 40%
    07:00 +2°C° 0 mm 2 mps 610 mmHg 38%
    08:00 +2°C° 0 mm 2 mps 610 mmHg 37%
    09:00 +4°C° 0 mm 2 mps 611 mmHg 32%
    10:00 +7°C° 0 mm 1 mps 611 mmHg 27%
    11:00 +9°C° 0 mm 1 mps 612 mmHg 23%
    12:00 +9°C° 0 mm 1 mps 611 mmHg 21%
    13:00 +10°C° 0 mm 1 mps 611 mmHg 19%
    14:00 +11°C° 0 mm 1 mps 611 mmHg 18%
    15:00 +10°C° 0 mm 1 mps 611 mmHg 19%
    16:00 +9°C° 0 mm 1 mps 610 mmHg 20%
    17:00 +8°C° 0 mm 1 mps 610 mmHg 22%
    18:00 +7°C° 0 mm 1 mps 610 mmHg 22%
    19:00 +6°C° 0 mm 1 mps 610 mmHg 23%
    20:00 +5°C° 0 mm 1 mps 610 mmHg 24%
    21:00 +5°C° 0 mm 1 mps 609 mmHg 23%
    22:00 +4°C° 0 mm 1 mps 609 mmHg 23%
    23:00 +4°C° 0 mm 1 mps 609 mmHg 22%

    Tomorrow, 20 November, Monday

    Time Temperature Precipitation Wind Pressure Humidity
    00:00 +3°C° 0 mm 1 mps 609 mmHg 22%
    01:00 +3°C° 0 mm 1 mps 609 mmHg 21%
    02:00 +2°C° 0 mm 1 mps 608 mmHg 21%
    03:00 +2°C° 0 mm 1 mps 608 mmHg 20%
    04:00 +2°C° 0 mm 1 mps 608 mmHg 20%
    05:00 +2°C° 0 mm 1 mps 607 mmHg 19%
    06:00 +2°C° 0 mm 1 mps 608 mmHg 18%
    07:00 +3°C° 0 mm 1 mps 608 mmHg 17%
    08:00 +3°C° 0 mm 1 mps 609 mmHg 16%
    09:00 +5°C° 0 mm 1 mps 610 mmHg 14%
    10:00 +7°C° 0 mm 1 mps 610 mmHg 12%
    11:00 +10°C° 0 mm 1 mps 611 mmHg 10%
    12:00 +10°C° 0 mm 1 mps 611 mmHg 10%
    13:00 +11°C° 0 mm 1 mps 611 mmHg 10%
    14:00 +11°C° 0 mm 1 mps 610 mmHg 9%
    15:00 +10°C° 0 mm 1 mps 610 mmHg 11%
    16:00 +9°C° 0 mm 1 mps 609 mmHg 12%
    17:00 +6°C° 0 mm 0 mps 609 mmHg 14%
    18:00 +5°C° 0 mm 0 mps 608 mmHg 14%
    19:00 +5°C° 0 mm 1 mps 608 mmHg 14%
    20:00 +4°C° 0 mm 1 mps 608 mmHg 14%
    21:00 +4°C° 0 mm 1 mps 608 mmHg 14%
    22:00 +4°C° 0 mm 1 mps 608 mmHg 15%
    23:00 +3°C° 0 mm 1 mps 608 mmHg 15%

    Day after tomorrow, 21 November, Tuesday

    Time Temperature Precipitation Wind Pressure Humidity
    00:00 +3°C° 0 mm 1 mps 607 mmHg 15%
    01:00 +3°C° 0 mm 1 mps 607 mmHg 14%
    02:00 +2°C° 0 mm 1 mps 607 mmHg 14%
    03:00 +2°C° 0 mm 1 mps 606 mmHg 16%
    04:00 +2°C° 0 mm 1 mps 606 mmHg 17%
    05:00 +2°C° 0 mm 1 mps 606 mmHg 19%
    06:00 +2°C° 0 mm 1 mps 606 mmHg 17%
    07:00 +3°C° 0 mm 1 mps 607 mmHg 14%
    08:00 +3°C° 0 mm 1 mps 607 mmHg 12%
    09:00 +6°C° 0 mm 1 mps 608 mmHg 11%
    10:00 +8°C° 0 mm 1 mps 609 mmHg 9%
    11:00 +11°C° 0 mm 1 mps 610 mmHg 8%
    12:00 +11°C° 0 mm 1 mps 610 mmHg 8%
    13:00 +12°C° 0 mm 1 mps 610 mmHg 8%
    14:00 +12°C° 0 mm 1 mps 609 mmHg 8%
    15:00 +11°C° 0 mm 1 mps 609 mmHg 10%
    16:00 +9°C° 0 mm 1 mps 608 mmHg 11%
    17:00 +7°C° 0 mm 0 mps 607 mmHg 13%
    18:00 +6°C° 0 mm 0 mps 607 mmHg 13%
    19:00 +6°C° 0 mm 1 mps 607 mmHg 13%
    20:00 +5°C° 0 mm 1 mps 607 mmHg 13%
    21:00 +4°C° 0 mm 1 mps 607 mmHg 14%
    22:00 +4°C° 0 mm 1 mps 607 mmHg 15%
    23:00 +3°C° 0 mm 1 mps 606 mmHg 15%

    22 November, Wednesday

    Time Temperature Precipitation Wind Pressure Humidity
    00:00 +3°C° 0 mm 1 mps 606 mmHg 17%
    01:00 +3°C° 0 mm 1 mps 606 mmHg 19%
    02:00 +2°C° 0 mm 1 mps 605 mmHg 21%
    03:00 +2°C° 0 mm 1 mps 605 mmHg 21%
    04:00 +2°C° 0 mm 1 mps 605 mmHg 21%
    05:00 +1°C° 0 mm 1 mps 605 mmHg 22%
    06:00 +2°C° 0 mm 1 mps 605 mmHg 19%
    07:00 +3°C° 0 mm 1 mps 605 mmHg 16%
    08:00 +3°C° 0 mm 1 mps 606 mmHg 13%
    09:00 +6°C° 0 mm 1 mps 607 mmHg 11%
    10:00 +9°C° 0 mm 1 mps 608 mmHg 10%
    11:00 +11°C° 0 mm 1 mps 609 mmHg 8%
    12:00 +12°C° 0 mm 1 mps 609 mmHg 9%
    13:00 +12°C° 0 mm 1 mps 609 mmHg 9%
    14:00 +13°C° 0 mm 1 mps 609 mmHg 9%
    15:00 +11°C° 0 mm 1 mps 608 mmHg 10%
    16:00 +10°C° 0 mm 1 mps 607 mmHg 12%
    17:00 +7°C° 0 mm 0 mps 607 mmHg 13%
    18:00 +6°C° 0 mm 0 mps 606 mmHg 14%
    19:00 +5°C° 0 mm 0 mps 606 mmHg 14%
    20:00 +4°C° 0 mm 0 mps 606 mmHg 14%
    21:00 +4°C° 0 mm 0 mps 606 mmHg 15%
    22:00 +4°C° 0 mm 0 mps 606 mmHg 15%
    23:00 +3°C° 0 mm 0 mps 606 mmHg 15%

    23 November, Thursday

    Time Temperature Precipitation Wind Pressure Humidity
    00:00 +4°C° 0 mm 1 mps 605 mmHg 15%
    01:00 +4°C° 0 mm 1 mps 605 mmHg 16%
    02:00 +4°C° 0 mm 1 mps 605 mmHg 16%
    03:00 +3°C° 0 mm 1 mps 604 mmHg 17%
    04:00 +3°C° 0 mm 1 mps 604 mmHg 19%
    05:00 +3°C° 0 mm 1 mps 604 mmHg 20%
    06:00 +3°C° 0 mm 1 mps 604 mmHg 19%
    07:00 +4°C° 0 mm 1 mps 605 mmHg 18%
    08:00 +4°C° 0 mm 1 mps 605 mmHg 17%
    09:00 +7°C° 0 mm 1 mps 606 mmHg 15%
    10:00 +9°C° 0 mm 1 mps 607 mmHg 13%
    11:00 +12°C° 0 mm 1 mps 608 mmHg 11%
    12:00 +12°C° 0 mm 1 mps 608 mmHg 12%
    13:00 +13°C° 0 mm 1 mps 608 mmHg 12%
    14:00 +13°C° 0 mm 1 mps 608 mmHg 12%
    15:00 +12°C° 0 mm 1 mps 607 mmHg 14%
    16:00 +11°C° 0 mm 1 mps 607 mmHg 15%
    17:00 +9°C° 0 mm 1 mps 606 mmHg 17%
    18:00 +9°C° 0 mm 1 mps 606 mmHg 17%
    19:00 +8°C° 0 mm 1 mps 607 mmHg 17%
    20:00 +8°C° 0 mm 1 mps 607 mmHg 18%
    21:00 +8°C° 0 mm 1 mps 607 mmHg 18%
    22:00 +7°C° 0 mm 1 mps 607 mmHg 19%
    23:00 +7°C° 0 mm 1 mps 607 mmHg 19%

    24 November, Friday

    Time Temperature Precipitation Wind Pressure Humidity
    00:00 +7°C° 0 mm 1 mps 607 mmHg 20%
    01:00 +6°C° 0 mm 1 mps 607 mmHg 22%
    02:00 +6°C° 0 mm 1 mps 606 mmHg 23%
    03:00 +5°C° 0 mm 1 mps 606 mmHg 25%
    04:00 +5°C° 0 mm 1 mps 606 mmHg 27%
    05:00 +4°C° 0 mm 1 mps 606 mmHg 29%
    06:00 +5°C° 0 mm 1 mps 606 mmHg 30%
    07:00 +5°C° 0 mm 1 mps 607 mmHg 30%
    08:00 +5°C° 0 mm 1 mps 607 mmHg 30%
    09:00 +7°C° 0 mm 1 mps 608 mmHg 27%
    10:00 +9°C° 0 mm 1 mps 609 mmHg 25%
    11:00 +11°C° 0 mm 1 mps 610 mmHg 22%
    12:00 +11°C° 0 mm 1 mps 609 mmHg 22%
    13:00 +12°C° 0 mm 1 mps 609 mmHg 22%
    14:00 +13°C° 0 mm 1 mps 609 mmHg 23%
    15:00 +12°C° 0 mm 1 mps 609 mmHg 25%
    16:00 +11°C° 0 mm 1 mps 609 mmHg 27%
    17:00 +10°C° 0 mm 1 mps 609 mmHg 29%
    18:00 +9°C° 0 mm 1 mps 609 mmHg 32%
    19:00 +8°C° 0 mm 1 mps 608 mmHg 34%
    20:00 +7°C° 0 mm 1 mps 608 mmHg 36%
    21:00 +7°C° 0 mm 1 mps 608 mmHg 37%
    22:00 +7°C° 0 mm 1 mps 608 mmHg 38%
    23:00 +6°C° 0 mm 1 mps 608 mmHg 39%
    Show more